Погода в Борисовке

Россия / Белгородская область     50°36′28″N   36°00′32″E
темп.,
°C
ветер,
м/с
пор.,
м/с
влажн.,
%
обл.,
%
осадки,
мм/ч
давл.,
гПа
погр.,
м
27 июня, пн
пн2700:00+18св4118862 0.0 1019182
03:00+17св410927 0.0 1019186
06:00+18св4109156 0.0 1020243
09:00+23всв610705 0.0 1020808
12:00+25всв79490 0.0 10201174
15:00+26всв68490 0.0 10191331
18:00+25всв47630 0.0 1019936
21:00+20всв33770 0.0 101926
28 июня, вт
вт2800:00+18св22810 0.0 101912
03:00+18ссв11834 0.0 101911
06:00+19с23875 0.0 101888
09:00+25ссв35734 0.0 1018538
12:00+29ссв455342 1.6 10171539
15:00+29св565270 1.6 10171799
18:00+27ссв586515 0.2 1017441
21:00+22св33785 0.2 101838
29 июня, ср
ср2900:00+20всв488399 0.0 1018147
03:00+18всв489197 0.1 1019173
06:00+18всв488925 0.0 1019235
09:00+21в567340 0.0 1020544
12:00+24в555868 0.0 10201099
15:00+24в4450100 0.0 10191269
18:00+23в4559100 0.0 1019593
21:00+18в4968100 0.0 1019232
30 июня, чт
чт3000:00+17в3662100 0.0 1019160
03:00+15юв3780100 0.4 1019183
06:00+15всв23795 0.0 102082
09:00+19в45600 0.0 1020609
12:00+22всв45480 0.0 10191610
15:00+24св45440 0.0 10191962
18:00+23св45550 0.0 10191687
21:00+18св33723 0.0 101922
1 июля, пт
пт100:00+15св22775 0.0 102014
03:00+14ссв22823 0.0 102122
06:00+15ссв35809 0.0 1021108
09:00+20ссв45620 0.0 1021517
12:00+24ссв56470 0.0 10211736
15:00+25св56440 0.0 10212017
18:00+24св35540 0.0 10201775
21:00+18св22690 0.0 102111